Wind_Speed
40 36 35 34 35 32 30 28 26 25 27 30 35 36 31 28 29 23 21 15 12 8 7 5 7 4 3 11 11 14 14 11 21 21 19 24 24 23 22 18 14 17 11 10
42 40 39 40 37 36 34 32 29 26 24 26 29 33 38 39 28 27 25 19 13 11 7 2 8 3 2 3 16 13 17 17 19 25 19 18 21 19 19 19 18 22 17 15
38 44 46 42 40 39 36 34 32 30 28 26 25 26 28 35 36 26 26 23 15 16 12 7 5 4 7 0 10 19 16 22 22 23 22 21 21 18 21 20 18 15 17 17
35 40 43 45 44 41 39 38 36 36 33 31 29 27 26 25 35 35 28 24 21 22 18 15 9 5 4 1 4 12 19 19 22 21 24 27 20 23 22 21 20 17 18 17
31 36 39 41 45 45 43 42 40 39 36 32 31 32 29 29 26 36 38 31 29 25 25 21 12 10 6 2 5 8 12 21 22 25 23 23 20 21 23 23 23 20 17 18
28 32 34 36 39 43 44 43 42 40 38 36 35 35 34 31 30 27 34 37 36 35 32 28 20 13 10 5 3 7 12 13 19 25 28 30 27 25 24 24 27 24 22 17
24 27 31 33 35 36 38 40 42 42 40 39 40 38 38 36 34 32 31 31 41 38 37 34 27 20 16 11 6 5 8 13 15 15 16 21 27 30 31 31 32 28 21 17
22 25 28 29 31 32 34 35 37 38 40 40 41 42 40 41 38 36 34 33 33 36 42 38 31 25 21 18 11 6 7 10 14 16 14 18 19 20 25 26 24 20 19 18
21 24 26 28 29 30 31 32 33 33 34 35 37 39 41 42 42 40 39 37 36 34 35 38 35 31 27 24 17 10 9 7 8 13 13 18 20 21 23 23 21 19 20 21
20 23 24 25 27 28 29 29 29 29 30 30 32 35 38 41 44 43 43 41 39 37 34 41 39 35 31 29 21 17 12 8 9 11 14 16 19 20 24 21 20 20 24 18
19 21 23 23 23 24 25 26 26 25 28 30 32 34 35 38 41 42 44 45 44 41 39 41 44 40 37 35 26 20 16 12 7 10 13 14 16 21 23 23 24 27 21 15
14 18 20 20 21 20 20 23 25 24 25 26 28 32 35 36 40 42 44 46 48 48 44 43 46 45 44 40 34 25 21 16 12 9 11 14 13 16 23 26 29 28 21 14
19 20 21 23 23 25 27 28 26 26 28 31 34 38 38 39 40 42 44 47 49 52 51 47 47 50 47 44 41 31 27 20 14 12 13 14 15 18 27 29 27 24 22 20
23 22 24 25 24 25 25 27 29 26 26 30 34 38 43 46 46 46 45 47 51 52 55 51 50 53 51 49 45 37 30 23 19 15 9 12 18 18 28 27 26 24 22 21
27 27 27 26 24 25 26 28 25 26 25 28 30 33 39 40 46 48 49 48 52 55 55 55 54 53 54 54 45 43 37 29 23 20 17 13 18 24 28 26 27 25 24 23
29 29 30 32 31 30 30 29 29 30 30 32 31 33 35 37 39 39 46 50 51 54 56 59 57 53 57 56 52 49 43 37 30 25 25 23 20 17 14 24 27 23 25 26
34 31 30 32 33 35 38 34 35 33 32 32 32 29 29 31 32 35 40 48 51 54 57 60 58 57 56 57 57 52 48 43 36 31 28 30 24 19 21 23 17 12 13 14
38 34 32 30 30 31 34 32 36 37 34 32 32 31 30 28 30 31 36 41 51 55 56 60 60 60 57 57 58 55 53 48 42 35 30 32 29 26 22 26 26 21 22 15
39 38 33 29 29 33 29 29 32 34 34 31 31 29 30 30 29 26 30 36 45 54 57 58 59 62 63 56 57 56 57 54 49 39 38 35 33 33 30 27 27 29 29 26
40 38 33 30 29 32 30 30 30 31 32 31 31 30 31 30 30 28 27 31 40 50 55 55 57 63 62 63 61 59 60 58 56 51 45 43 41 39 38 36 31 31 30 26
42 39 32 31 30 32 29 29 28 31 31 30 32 33 36 36 34 32 29 31 37 46 49 53 55 60 63 65 67 62 57 58 59 57 50 49 45 42 41 40 40 40 40 40
42 39 33 27 29 31 29 29 29 29 29 31 34 38 41 41 35 34 35 33 36 41 45 49 53 54 60 65 65 66 60 54 52 51 51 53 51 44 40 49 48 46 48 48
43 39 33 30 29 28 28 28 27 27 29 31 35 41 47 46 37 37 40 38 37 39 42 44 49 52 52 60 63 64 62 59 55 51 46 51 51 47 50 46 45 46 51 50
42 39 31 29 28 27 27 27 25 25 27 31 37 44 43 34 27 33 37 38 36 33 33 36 36 41 52 53 58 65 61 61 60 58 52 43 34 54 58 59 54 53 52 54
43 37 30 27 26 26 26 23 22 23 26 31 39 42 29 17 20 29 38 39 32 26 23 33 34 34 48 51 54 59 56 57 57 61 62 65 61 60 54 59 64 60 57 59
42 33 29 25 25 24 23 21 20 21 24 32 37 30 14 23 19 32 36 34 31 36 32 38 39 36 44 49 52 54 59 60 58 69 68 69 67 68 69 72 65 64 62 61
Wind_Direction
234 232 233 231 230 226 222 222 224 230 227 227 227 227 214 226 228 240 253 252 267 272 290 8 2 9 302 221 185 181 165 173 170 168 163 180 190 204 215 221 232 218 235 277
233 232 232 232 233 231 229 227 226 226 229 229 229 231 227 227 233 243 240 244 236 246 248 309 340 2 64 245 204 196 196 173 185 186 190 195 202 214 223 233 233 221 245 277
233 231 232 232 232 233 234 234 234 235 236 233 231 233 231 230 226 220 230 233 220 228 216 251 310 359 1 227 205 204 205 194 189 193 204 214 221 225 222 225 227 239 254 271
232 232 232 233 234 233 235 236 237 239 240 239 237 233 233 232 231 225 218 217 223 221 215 243 262 277 341 322 216 206 208 211 201 198 203 214 229 229 234 231 243 249 258 265
235 231 231 232 233 233 236 236 237 239 238 240 242 239 232 233 230 228 229 228 231 219 223 241 244 251 273 246 202 210 214 222 224 220 229 237 255 236 232 235 247 250 263 260
237 234 232 232 234 235 236 238 239 240 240 239 241 242 241 235 232 224 226 227 219 226 230 239 248 240 237 239 212 208 209 218 220 232 237 242 245 239 236 240 241 258 269 260
235 233 232 231 231 232 235 238 240 240 240 239 239 238 241 238 235 230 225 222 218 219 222 232 241 231 226 217 215 218 209 219 233 233 226 231 231 233 237 244 251 260 255 248
233 230 229 231 230 231 234 237 236 237 238 239 240 240 239 241 237 234 231 229 229 228 222 225 226 227 225 217 211 229 216 212 224 232 232 226 215 219 228 234 231 232 233 221
234 230 230 229 225 225 227 232 238 237 236 236 238 239 237 240 242 237 234 232 229 230 229 222 220 221 221 219 215 215 232 210 221 225 221 223 217 213 217 219 223 215 199 202
234 230 227 230 230 230 228 230 235 240 240 239 240 240 237 235 236 237 236 234 232 229 228 221 221 218 220 221 216 209 223 217 209 216 203 212 219 217 210 209 209 193 196 203
238 230 223 221 225 228 230 232 231 232 238 243 245 244 244 239 233 234 235 234 232 230 226 222 221 218 220 221 219 213 211 235 220 211 201 203 218 208 208 204 199 191 193 200
236 229 220 215 217 222 225 230 231 240 248 250 251 254 251 244 236 230 230 232 232 229 226 223 217 219 217 222 219 220 211 217 228 204 206 205 218 227 202 189 191 194 192 204
235 234 233 230 232 230 233 239 237 234 240 249 255 255 257 255 250 238 229 228 229 229 226 221 218 215 217 218 217 215 214 200 219 209 193 194 201 217 205 192 193 197 207 216
242 242 240 237 237 243 240 234 237 247 257 261 264 264 258 258 255 250 237 229 227 226 225 222 219 214 215 212 216 209 207 200 205 209 185 194 192 197 204 208 212 220 225 233
250 246 240 232 231 236 240 244 243 253 268 279 275 270 266 265 258 251 245 233 226 225 223 222 219 217 213 212 215 210 209 205 199 202 201 186 190 195 204 214 225 232 239 244
249 249 249 249 247 247 246 244 252 260 270 282 283 283 278 268 262 249 238 233 225 222 223 221 219 217 214 212 212 216 212 213 211 204 204 199 195 184 198 213 224 227 235 242
250 248 249 253 254 253 253 251 256 261 268 281 286 297 295 277 265 254 242 230 224 219 218 221 219 215 216 213 211 217 213 214 213 214 217 213 219 208 216 211 203 215 219 230
248 253 253 255 256 259 257 258 257 257 263 279 285 296 297 284 265 255 245 232 221 217 216 217 219 217 214 215 212 215 214 214 216 218 216 220 228 227 228 213 207 202 229 235
244 249 253 256 259 259 260 259 256 251 258 272 281 291 298 292 273 257 247 234 221 215 216 215 215 217 213 213 212 214 218 219 218 223 220 217 227 231 229 223 218 217 218 218
239 246 249 252 260 262 260 261 252 249 259 267 278 287 295 291 280 256 245 234 219 216 216 217 215 216 216 212 213 214 216 223 224 225 228 224 220 224 233 234 238 215 215 230
233 241 243 249 259 267 269 265 253 250 261 270 278 284 291 291 280 254 236 229 220 215 217 219 218 215 215 216 215 217 218 219 225 226 227 226 229 232 233 236 239 235 234 237
229 237 238 245 258 268 271 263 251 256 266 273 282 286 289 289 271 247 229 221 221 216 216 219 221 218 215 217 218 218 218 218 221 223 227 231 231 235 241 232 238 234 239 240
227 233 237 245 258 265 268 259 255 263 269 281 287 292 293 287 263 241 222 212 214 215 215 220 222 221 218 218 218 218 220 220 223 226 229 234 235 231 227 227 231 238 243 246
225 228 235 244 257 264 267 255 262 269 278 286 295 299 297 284 252 227 215 205 209 211 213 217 222 225 221 218 217 217 220 225 225 226 224 220 234 240 243 244 245 243 243 242
221 225 231 245 258 257 262 251 263 272 288 295 299 304 295 245 211 203 198 197 196 199 201 189 203 211 219 218 217 216 210 213 225 228 224 223 225 229 234 241 244 248 251 253
217 221 227 241 254 255 249 255 257 278 295 302 310 302 255 197 183 186 186 185 180 182 202 210 210 209 224 218 218 216 213 210 218 225 225 229 232 235 239 244 250 250 254 256
Height
10888 10894 10898 10902 10904 10908 10912 10915 10919 10922 10926 10929 10934 10938 10941 10944 10946 10951 10953 10954 10954 10956 10955 10955 10954 10952 10952 10953 10955 10958 10959 10961 10963 10965 10969 10973 10977 10980 10982 10984 10986 10987 10986 10985
10880 10885 10888 10892 10898 10902 10906 10910 10914 10917 10921 10924 10928 10930 10935 10938 10940 10945 10948 10950 10951 10953 10954 10953 10954 10953 10952 10952 10953 10957 10960 10962 10964 10966 10967 10971 10974 10977 10979 10981 10983 10984 10984 10983
10870 10872 10876 10883 10888 10894 10900 10903 10907 10911 10914 10918 10922 10925 10928 10932 10935 10939 10942 10945 10947 10948 10951 10951 10952 10951 10952 10950 10951 10953 10957 10960 10963 10965 10967 10969 10972 10974 10976 10978 10980 10981 10982 10982
10858 10862 10868 10874 10880 10886 10891 10896 10900 10902 10906 10912 10916 10919 10922 10924 10928 10934 10936 10939 10942 10944 10946 10948 10949 10949 10949 10949 10949 10950 10953 10957 10960 10962 10965 10967 10969 10970 10972 10974 10976 10978 10978 10979
10850 10855 10859 10865 10871 10877 10882 10886 10891 10894 10899 10905 10908 10911 10916 10918 10922 10925 10929 10934 10937 10941 10942 10944 10946 10947 10947 10948 10947 10948 10949 10952 10955 10958 10960 10962 10964 10966 10968 10970 10971 10973 10975 10976
10844 10848 10852 10857 10861 10867 10872 10878 10882 10886 10892 10896 10898 10901 10905 10911 10915 10919 10921 10926 10931 10934 10938 10939 10942 10945 10946 10946 10945 10946 10946 10947 10950 10952 10955 10956 10959 10962 10964 10966 10968 10969 10971 10972
10838 10841 10844 10848 10853 10858 10863 10867 10872 10877 10882 10886 10889 10893 10895 10901 10906 10911 10915 10919 10923 10926 10931 10933 10937 10941 10943 10943 10944 10944 10944 10944 10945 10947 10949 10951 10954 10957 10960 10962 10964 10965 10966 10968
10832 10835 10838 10842 10846 10850 10854 10858 10862 10867 10872 10876 10879 10884 10888 10889 10896 10902 10907 10911 10915 10918 10923 10927 10930 10934 10938 10940 10941 10941 10943 10942 10942 10942 10943 10945 10948 10951 10953 10956 10960 10960 10963 10965
10828 10829 10832 10834 10839 10843 10847 10850 10853 10859 10863 10866 10870 10873 10878 10881 10885 10892 10898 10902 10906 10910 10913 10918 10923 10927 10932 10935 10937 10939 10940 10939 10940 10938 10939 10940 10942 10945 10949 10953 10956 10958 10961 10962
10823 10825 10828 10830 10833 10837 10841 10845 10848 10850 10854 10857 10860 10863 10867 10872 10874 10879 10885 10891 10897 10902 10906 10909 10914 10920 10925 10929 10933 10934 10936 10938 10937 10938 10937 10937 10939 10942 10945 10948 10953 10956 10958 10960
10820 10821 10824 10826 10829 10832 10835 10838 10841 10843 10845 10849 10852 10854 10857 10861 10865 10869 10873 10878 10884 10890 10896 10900 10905 10911 10918 10922 10926 10929 10931 10934 10934 10935 10936 10936 10938 10940 10943 10946 10949 10953 10957 10960
10817 10819 10820 10823 10825 10828 10830 10832 10834 10837 10840 10842 10843 10843 10844 10849 10853 10858 10862 10866 10871 10876 10883 10889 10895 10902 10909 10915 10920 10923 10927 10929 10931 10931 10933 10934 10937 10940 10942 10946 10948 10952 10954 10958
10814 10816 10817 10819 10821 10823 10825 10827 10830 10832 10834 10835 10835 10833 10835 10838 10841 10845 10850 10853 10858 10863 10870 10878 10884 10892 10899 10907 10913 10918 10922 10925 10927 10929 10930 10932 10934 10938 10942 10946 10949 10951 10953 10955
10807 10809 10810 10812 10814 10816 10818 10820 10823 10825 10826 10826 10825 10825 10824 10825 10828 10831 10836 10842 10845 10851 10857 10866 10873 10881 10889 10897 10905 10911 10916 10920 10923 10926 10928 10930 10932 10935 10940 10945 10948 10949 10951 10953
10799 10801 10803 10805 10807 10809 10811 10812 10814 10815 10816 10816 10814 10813 10811 10813 10811 10815 10820 10827 10833 10838 10845 10853 10863 10870 10879 10888 10896 10904 10910 10915 10919 10923 10926 10928 10930 10933 10938 10942 10944 10946 10948 10950
10790 10792 10793 10795 10798 10800 10802 10804 10806 10806 10806 10805 10803 10800 10798 10796 10795 10798 10802 10810 10819 10827 10833 10840 10850 10860 10869 10878 10886 10896 10903 10909 10914 10918 10921 10924 10929 10931 10934 10937 10939 10942 10944 10946
10780 10782 10785 10786 10788 10790 10790 10795 10795 10796 10796 10795 10792 10789 10786 10785 10784 10785 10789 10795 10805 10813 10820 10827 10837 10848 10858 10869 10878 10886 10893 10901 10908 10913 10917 10920 10924 10928 10931 10934 10936 10938 10940 10942
10770 10773 10775 10777 10779 10780 10781 10784 10784 10784 10786 10785 10782 10780 10777 10775 10775 10775 10777 10782 10789 10798 10806 10815 10826 10836 10846 10857 10868 10875 10883 10892 10900 10906 10911 10914 10918 10922 10925 10928 10930 10932 10935 10938
10760 10763 10766 10768 10770 10770 10772 10773 10773 10774 10777 10776 10774 10772 10769 10766 10766 10768 10768 10771 10777 10786 10794 10802 10813 10821 10833 10846 10857 10865 10873 10881 10890 10898 10905 10909 10912 10915 10918 10921 10925 10927 10930 10931
10750 10754 10758 10760 10762 10762 10763 10763 10763 10765 10766 10767 10765 10763 10760 10758 10757 10759 10761 10762 10768 10776 10785 10793 10801 10810 10821 10833 10844 10853 10861 10869 10877 10885 10893 10899 10904 10908 10911 10915 10919 10921 10924 10926
10739 10744 10749 10751 10753 10752 10754 10754 10754 10755 10757 10757 10755 10753 10750 10748 10747 10748 10751 10755 10759 10766 10776 10783 10791 10799 10810 10821 10832 10841 10850 10858 10868 10875 10883 10889 10894 10899 10903 10907 10911 10914 10916 10918
10729 10735 10739 10743 10744 10744 10745 10744 10745 10747 10747 10747 10744 10741 10737 10735 10734 10736 10739 10745 10750 10757 10765 10772 10780 10789 10799 10809 10820 10830 10841 10849 10856 10865 10872 10876 10884 10891 10895 10897 10900 10904 10905 10908
10719 10724 10731 10734 10737 10736 10737 10736 10738 10739 10738 10737 10733 10728 10722 10717 10716 10721 10726 10733 10741 10748 10757 10764 10772 10781 10791 10799 10810 10821 10830 10838 10846 10854 10862 10867 10873 10879 10881 10886 10888 10892 10896 10898
10708 10716 10722 10726 10728 10729 10729 10729 10730 10730 10729 10727 10721 10714 10707 10700 10700 10707 10715 10726 10734 10742 10752 10760 10767 10772 10779 10788 10798 10809 10819 10827 10834 10844 10853 10860 10862 10866 10870 10874 10876 10878 10883 10886
10700 10708 10714 10718 10719 10721 10722 10723 10723 10723 10722 10717 10710 10702 10696 10693 10693 10699 10708 10719 10730 10738 10747 10753 10759 10765 10771 10779 10786 10795 10805 10814 10821 10829 10838 10843 10848 10853 10855 10857 10861 10866 10870 10872
10692 10701 10707 10711 10712 10714 10716 10716 10717 10717 10715 10709 10701 10693 10690 10690 10693 10698 10707 10718 10726 10735 10741 10746 10753 10758 10760 10769 10778 10789 10795 10803 10809 10814 10823 10828 10833 10837 10840 10844 10847 10851 10854 10856